GFSNW_sfc_wetblb_336.txt.gz
Wetbulb
55.34 55.18 54.82 54.23 53.21 51.63 54.33 60.25 54.92 63.24 62.24 52.03 52.56 50.62 52.59 52.03 55.20 57.56 55.85 56.09 54.98 54.65 55.16 54.85 54.65 54.33 57.44 59.79 59.04 55.04 57.28 54.34 51.32 53.05 57.09 58.01 56.64 55.03 54.70 51.84 51.46 51.94 50.54 50.95
55.38 55.22 54.80 54.08 52.91 51.93 54.11 58.27 58.28 62.33 59.24 48.30 49.52 52.91 52.43 54.13 53.88 54.62 55.27 54.10 54.94 55.35 53.77 52.63 54.59 55.26 58.11 59.23 58.34 57.34 58.14 54.42 49.72 51.04 54.06 56.27 55.11 56.07 55.81 54.97 54.02 52.38 50.49 51.57
55.34 55.32 54.94 54.18 53.33 52.51 53.76 58.59 55.58 57.80 57.67 55.01 52.09 52.80 52.74 52.08 55.38 54.46 55.48 54.39 55.19 53.84 52.86 54.88 53.49 54.59 57.52 58.67 58.19 64.62 63.00 55.10 53.08 50.00 52.72 55.19 54.24 55.70 56.28 55.92 51.34 51.47 51.37 53.37
55.28 55.24 55.04 54.51 53.69 52.62 54.49 59.15 57.19 60.34 54.32 53.37 52.96 53.22 54.18 52.23 51.61 54.85 55.05 54.21 52.92 53.13 52.27 53.05 52.60 54.10 55.32 56.87 62.08 59.07 56.76 53.34 54.94 54.94 55.47 55.40 54.79 54.97 56.04 55.16 55.32 52.62 53.51 54.25
55.31 55.26 54.92 54.45 53.41 51.69 58.46 56.22 56.34 58.02 57.78 57.70 56.02 52.70 53.05 52.59 54.14 53.77 54.11 55.45 55.29 55.88 54.51 54.93 53.14 54.65 55.03 54.20 56.52 55.73 57.16 55.11 55.40 53.62 55.64 55.44 54.10 55.55 55.13 55.94 54.71 54.97 56.20 55.89
55.35 55.35 55.16 54.55 53.01 52.28 58.86 60.01 59.36 57.45 54.15 55.85 54.40 54.51 54.81 54.47 56.13 56.93 57.38 56.98 57.54 56.17 57.88 60.00 60.16 60.03 59.32 57.52 55.82 56.41 56.41 55.79 55.03 51.96 55.51 54.40 51.97 54.81 54.96 55.85 57.43 56.50 53.61 57.02
55.35 55.33 55.21 54.49 53.35 51.95 54.54 58.23 57.18 55.24 52.76 54.22 54.57 56.02 56.28 55.68 56.38 56.03 57.65 58.36 56.92 59.27 62.36 61.72 60.17 58.74 57.83 57.49 57.35 57.56 55.56 57.64 55.88 51.74 53.71 47.06 54.78 58.00 57.94 57.02 57.38 58.77 58.27 59.44
54.85 55.07 55.19 54.84 53.84 52.57 53.98 58.14 56.25 55.41 52.99 55.20 53.83 54.41 55.96 57.84 58.03 56.56 56.92 59.12 60.06 61.31 59.05 55.01 53.47 54.28 55.63 56.52 57.19 56.47 56.45 54.54 52.57 50.98 49.55 52.47 54.06 56.69 56.96 55.48 55.74 59.46 58.04 59.00
54.01 54.18 54.10 54.56 54.22 52.78 54.15 57.33 58.53 55.31 52.89 53.95 55.49 54.16 54.12 52.59 53.52 54.62 55.90 58.73 60.43 59.17 56.09 53.33 50.21 49.27 53.01 53.14 55.27 58.44 57.02 58.09 53.80 52.17 47.86 46.24 54.75 58.21 60.84 59.52 52.36 62.47 61.84 61.47
54.15 53.91 54.08 54.13 54.56 53.12 52.85 56.28 60.44 55.85 52.31 55.94 55.23 53.19 53.48 56.15 54.24 52.03 54.69 56.24 56.92 57.94 52.89 50.73 50.22 50.18 54.57 50.85 51.53 53.02 54.38 56.08 52.42 52.20 49.93 52.46 57.99 59.72 61.25 51.89 55.17 62.96 62.60 62.43
53.94 53.76 53.77 54.10 54.28 54.31 52.92 55.66 61.16 55.89 52.73 54.58 55.90 55.92 53.86 54.48 53.80 51.09 55.13 54.01 54.46 52.47 50.18 50.53 50.99 50.72 52.58 52.80 54.75 53.88 53.52 52.99 51.86 53.51 50.77 47.90 59.38 59.23 56.45 59.16 63.13 63.51 65.39 66.01
53.53 53.80 53.56 53.83 53.82 53.61 53.14 55.08 59.61 60.68 54.69 54.68 58.32 58.59 59.00 57.35 56.63 55.65 55.65 53.65 55.11 56.10 54.37 55.31 55.07 52.70 54.12 54.42 49.85 57.42 51.58 55.89 54.24 55.09 54.23 60.31 61.52 60.27 61.97 61.61 58.35 61.25 63.39 63.92
53.30 53.38 53.51 53.51 53.47 53.38 52.30 53.22 57.46 58.63 56.22 57.24 58.58 58.49 61.90 61.66 59.27 58.19 52.41 54.77 58.19 57.20 59.88 54.98 53.96 51.65 53.62 49.76 50.89 53.83 56.46 59.92 55.71 56.31 58.10 59.44 60.52 60.83 60.63 60.49 60.02 61.09 62.71 62.15
53.80 53.30 53.26 53.24 53.49 53.23 51.73 52.55 57.00 57.60 56.89 52.99 57.22 61.02 59.11 61.80 60.98 59.19 57.61 56.41 59.35 58.15 56.92 54.24 52.69 51.37 55.60 51.63 53.04 52.46 54.35 56.20 54.77 54.98 58.03 58.59 60.30 59.85 59.52 59.12 60.32 61.03 62.84 62.96
53.63 53.28 53.14 53.02 53.18 52.66 52.38 54.69 57.16 59.77 55.72 52.77 54.22 59.02 59.46 61.03 60.52 59.52 59.81 58.38 57.24 55.65 54.85 54.35 52.98 55.98 55.69 55.79 54.96 51.96 55.23 54.87 52.31 51.86 57.26 56.71 57.53 59.17 58.89 59.88 60.94 62.13 62.22 62.32
53.62 53.44 53.15 53.13 52.87 52.37 53.20 56.38 60.20 61.96 60.96 54.43 51.54 58.52 57.39 59.05 60.11 59.84 59.30 59.08 58.36 57.44 55.84 55.11 56.55 58.63 55.89 51.71 49.94 55.22 56.83 58.62 58.91 56.52 58.54 58.25 58.69 59.58 59.80 59.21 59.95 61.18 62.73 63.72
53.28 52.91 52.51 52.31 52.10 52.22 54.06 54.78 56.64 54.62 61.14 54.90 52.92 53.42 56.74 58.97 59.56 59.06 58.37 59.45 57.98 57.48 56.26 55.25 55.19 56.01 55.98 52.92 49.87 55.36 58.21 59.58 60.00 60.24 58.95 57.26 58.78 57.30 59.42 60.11 61.00 61.47 63.41 65.64
52.63 52.20 51.98 51.80 51.90 51.16 53.22 58.51 53.79 55.10 57.12 56.92 51.19 52.55 56.29 60.40 56.11 55.38 59.42 57.42 57.52 57.02 56.20 56.29 54.40 55.85 55.40 50.73 55.14 58.27 59.15 59.50 58.97 59.00 59.21 58.45 58.99 59.71 59.85 60.90 60.53 60.58 61.15 64.23
51.84 51.80 52.42 54.82 54.67 57.37 57.63 53.88 55.11 59.94 57.06 53.03 53.32 50.71 51.24 60.47 57.34 58.94 58.63 58.49 53.08 58.24 54.45 54.44 55.11 52.60 51.04 55.61 56.70 57.44 58.25 57.58 57.47 58.76 58.84 58.97 58.32 58.73 59.24 59.45 59.99 59.78 59.82 61.83
51.95 53.42 56.11 54.91 57.20 51.36 55.29 56.49 55.08 54.78 56.51 54.88 50.50 54.85 52.01 56.34 56.18 54.84 54.18 56.15 52.69 50.09 53.19 56.64 52.90 52.31 56.96 57.80 58.11 58.96 58.55 58.95 58.97 56.24 55.94 56.79 57.13 57.72 58.70 59.38 60.35 61.54 62.10 62.35
57.37 54.92 54.09 57.57 53.67 57.97 56.55 53.00 51.74 53.91 51.21 54.66 54.35 53.54 52.49 58.69 53.01 53.12 56.25 52.70 53.81 48.44 51.48 52.12 50.19 50.48 56.03 58.73 58.26 58.52 58.51 58.84 58.84 58.76 58.52 58.49 58.71 58.47 58.09 59.78 61.12 60.90 63.00 62.16
51.48 50.29 53.49 55.64 54.26 53.34 50.62 49.57 52.50 51.87 50.07 55.25 53.97 54.80 56.13 56.99 58.53 54.35 52.90 51.03 52.25 47.09 55.98 51.39 47.92 54.70 58.08 57.73 57.68 58.33 58.59 58.32 57.74 58.26 58.04 58.79 59.08 59.01 59.59 60.39 60.78 61.81 63.09 63.35
56.85 52.86 53.41 53.27 52.39 42.80 45.80 44.97 49.01 50.49 54.20 55.18 55.42 53.23 56.05 56.78 56.55 54.63 53.69 48.83 48.06 54.70 50.25 47.40 52.67 58.01 58.03 58.49 58.11 57.80 58.51 57.93 57.43 57.29 58.37 59.12 58.79 59.88 59.36 59.57 61.59 62.32 62.33 62.02
51.75 49.91 41.53 49.30 47.57 49.40 50.28 50.79 52.11 54.90 54.27 55.21 55.18 54.18 52.00 55.98 52.93 53.38 48.44 51.62 52.36 46.57 45.20 46.93 54.37 57.17 57.70 58.08 58.09 57.54 56.64 56.98 56.55 56.79 57.75 57.75 57.88 58.31 59.26 60.13 61.42 61.45 60.93 59.18
49.84 48.20 42.24 48.49 52.75 52.85 53.72 54.93 54.85 54.82 56.67 55.18 54.36 54.09 51.94 52.94 50.94 52.23 50.41 47.70 45.75 47.34 47.72 51.91 55.94 58.98 58.47 57.60 57.42 56.86 56.70 57.06 56.89 57.41 57.09 57.76 58.21 58.27 58.27 59.35 60.21 61.14 61.17 60.29
47.63 50.14 48.74 52.29 49.98 50.57 52.13 53.26 52.93 55.55 54.67 56.18 54.51 50.58 48.14 48.58 49.83 48.38 47.30 46.16 45.07 48.87 53.22 55.57 58.75 59.67 58.51 58.15 57.80 58.05 58.13 58.33 57.85 58.26 58.67 58.69 58.61 58.26 58.18 58.44 58.23 59.67 60.76 60.02
48.28 48.90 52.76 52.05 51.19 50.46 52.22 54.25 52.50 57.73 52.09 51.75 52.29 47.47 46.83 51.20 47.64 47.24 50.23 48.61 51.58 54.51 55.76 58.24 60.55 59.34 58.56 58.66 58.26 58.40 58.42 58.94 59.45 58.93 59.25 58.96 59.23 58.92 58.30 56.02 55.59 58.71 57.99 57.88

GFSNW_sfc_wetblb_339.txt.gz
Wetbulb
55.34 55.14 54.77 54.30 53.15 52.03 53.52 55.03 52.68 61.06 59.21 49.71 49.92 46.42 49.12 50.54 51.13 52.99 53.03 53.82 52.29 50.91 51.85 50.65 50.51 51.14 53.32 56.06 55.58 51.01 52.46 47.04 43.88 47.77 53.14 54.10 51.42 48.93 48.10 43.75 42.93 44.31 43.50 44.58
55.34 55.12 54.67 53.98 52.94 52.02 48.95 51.33 56.30 61.41 58.23 47.24 47.33 49.24 49.74 50.95 50.68 51.15 51.23 52.19 53.78 52.87 49.87 47.49 51.63 52.62 55.95 56.52 54.89 51.67 53.16 47.74 43.12 46.49 48.18 50.73 48.67 51.23 52.81 49.47 46.46 42.83 41.12 44.14
55.34 55.14 54.85 54.12 53.37 52.70 50.06 52.99 53.28 56.54 56.34 54.64 50.70 48.03 49.35 50.40 52.71 51.41 52.44 52.18 52.32 50.71 49.58 50.20 49.57 50.97 54.14 55.37 54.72 63.34 57.35 47.99 45.98 42.73 46.64 49.79 49.35 51.98 52.19 50.46 45.94 45.97 45.67 48.34
55.34 55.24 54.83 54.30 53.49 52.74 50.94 55.71 54.62 56.30 52.26 52.65 51.53 49.79 50.13 49.68 50.46 52.87 53.04 51.01 50.40 49.30 45.94 49.30 49.57 52.09 52.07 54.03 59.92 53.95 50.93 45.77 47.62 49.59 51.91 52.61 51.48 51.89 52.72 51.10 51.52 48.56 49.85 50.80
55.14 55.08 54.93 54.43 53.18 52.01 53.57 54.15 52.28 54.09 52.89 54.81 53.82 50.23 49.54 49.82 51.25 52.12 51.74 51.17 53.92 52.88 48.92 50.59 50.95 53.01 51.86 50.93 54.37 51.65 50.98 45.95 48.86 47.45 52.34 52.43 51.38 52.56 52.60 54.39 54.37 50.63 52.07 50.78
54.76 54.90 54.69 54.10 52.93 51.82 52.66 56.92 56.96 53.71 51.67 52.66 51.15 52.09 54.08 53.68 53.93 54.92 55.71 55.75 55.11 54.66 55.63 57.15 56.44 56.38 55.39 54.08 51.09 50.80 49.67 48.92 48.72 45.29 52.35 51.45 47.24 51.46 52.60 53.08 54.10 52.52 49.11 52.21
54.03 54.13 54.03 53.76 53.22 52.38 50.69 52.72 54.06 51.08 49.59 52.24 52.49 53.63 54.37 54.14 55.72 54.50 57.03 57.31 55.30 58.49 58.95 57.85 56.59 55.21 54.48 54.53 54.11 52.75 48.80 48.16 47.94 44.45 46.87 40.41 49.27 53.55 55.82 54.74 55.20 54.71 55.15 56.83
53.84 53.99 53.81 53.64 53.89 53.11 50.67 52.83 53.28 51.38 47.65 51.85 52.79 52.58 53.07 53.47 56.93 55.57 55.41 56.94 58.36 58.12 56.12 51.32 48.70 49.45 50.13 52.80 54.65 52.75 51.26 47.84 44.12 42.56 44.07 47.06 51.28 54.74 53.58 51.43 53.64 58.33 55.94 58.21
53.66 53.72 53.72 53.78 53.73 52.82 51.59 52.31 56.00 53.25 48.87 51.07 52.58 51.39 53.49 50.62 50.81 51.59 54.56 57.14 57.22 55.29 52.61 49.64 44.23 43.52 48.14 49.58 52.17 54.72 53.47 50.88 48.05 45.24 41.58 40.86 49.56 55.71 58.20 57.07 49.55 59.39 60.24 59.81
53.39 53.33 53.46 53.59 54.29 52.96 51.67 51.82 55.61 54.46 48.71 52.69 52.32 50.23 49.36 52.74 51.67 49.66 52.52 53.89 55.09 55.93 50.16 46.15 44.76 45.55 51.02 46.55 47.88 51.34 51.25 50.81 47.63 47.82 47.53 49.46 54.20 58.26 59.15 46.65 49.62 57.73 58.83 59.59
53.83 53.80 53.78 53.97 54.11 54.06 52.13 51.15 55.04 55.69 50.98 51.53 53.55 54.90 52.59 52.24 51.53 48.89 52.35 52.15 52.69 51.69 46.54 45.82 46.99 46.57 48.36 47.64 50.79 49.88 47.87 47.53 48.20 49.00 44.04 43.03 58.32 57.73 53.48 54.84 57.39 58.29 58.53 58.52
53.87 53.88 53.78 53.65 53.78 53.77 53.13 50.98 55.01 57.55 53.51 52.02 56.05 56.63 57.25 55.97 55.21 51.54 53.30 50.66 51.72 53.54 50.92 51.71 51.44 49.65 50.35 48.79 45.36 53.45 49.07 51.16 49.46 51.09 49.93 55.54 57.00 55.65 56.54 55.98 54.45 55.71 55.68 58.36
53.77 53.85 53.67 53.59 53.77 53.55 52.06 49.70 52.70 53.16 53.53 54.51 55.57 55.66 60.23 60.71 58.92 56.08 49.27 52.01 55.66 56.01 56.84 52.10 50.49 47.16 48.92 44.25 46.18 48.43 53.05 53.02 49.88 51.08 52.71 55.73 56.34 56.94 56.91 56.48 55.53 57.17 58.03 58.86
53.73 53.85 53.65 53.63 53.61 53.35 52.52 49.29 52.17 52.97 54.25 50.14 55.00 61.10 60.23 61.02 58.60 57.57 54.91 52.70 53.68 55.44 54.98 50.19 49.06 47.23 51.84 47.75 49.19 48.42 50.50 51.08 50.13 50.60 52.91 54.21 56.13 55.85 55.87 56.56 58.29 58.26 58.94 60.45
53.94 53.96 53.76 53.68 53.35 52.87 52.18 51.52 52.47 54.56 52.72 49.27 51.17 55.71 57.92 59.60 58.62 58.36 58.04 55.69 54.03 53.85 51.06 50.99 49.59 52.57 52.21 52.44 51.19 48.48 52.59 50.86 48.06 47.91 52.48 51.92 52.66 55.11 57.09 55.84 56.25 56.90 57.60 60.37
52.90 53.36 53.24 53.00 52.83 52.61 50.59 53.48 56.08 57.78 59.71 52.97 48.33 56.84 57.08 58.81 59.29 58.82 57.64 57.11 55.73 55.34 52.88 51.95 53.83 56.22 52.55 47.57 46.74 52.58 54.12 56.46 55.78 52.90 55.37 54.68 55.86 57.54 57.71 56.27 57.14 58.67 59.08 61.04
52.89 52.73 52.28 52.05 52.26 50.96 50.56 53.19 55.57 51.99 57.10 53.41 50.28 52.37 56.60 58.36 58.55 57.34 56.10 57.05 55.58 55.00 53.25 52.17 51.95 52.15 52.57 49.53 46.20 53.12 55.96 56.99 57.22 57.37 55.99 54.15 56.13 53.92 57.04 58.16 58.81 59.83 60.78 60.41
52.42 52.16 51.77 52.08 51.75 50.81 51.59 55.40 54.54 53.85 55.37 54.81 49.37 50.26 54.17 59.44 54.58 52.33 56.96 54.36 54.95 54.89 52.91 54.01 51.90 53.19 53.35 48.26 52.42 55.53 56.87 57.20 56.87 56.56 56.20 54.84 55.98 56.77 57.14 58.38 58.75 57.91 59.14 58.94
51.98 51.99 52.44 52.81 51.61 55.28 57.72 56.10 55.49 58.20 56.10 50.65 52.36 48.61 49.42 58.52 55.90 56.76 56.24 57.53 51.53 56.67 51.64 52.46 53.09 50.04 47.10 53.48 54.65 55.11 55.73 54.73 54.77 56.46 56.58 56.39 55.48 55.73 56.49 57.03 57.54 57.00 57.91 57.73
51.78 51.37 53.60 53.80 56.56 55.32 55.58 54.88 53.97 54.25 54.74 53.38 48.79 53.33 48.85 55.03 54.52 53.30 52.59 54.04 50.32 48.14 51.36 54.29 50.71 48.97 54.46 55.93 56.39 56.22 56.20 55.73 55.67 53.57 52.91 53.66 53.61 54.57 56.13 56.54 57.64 58.14 58.97 56.54
56.31 52.58 51.59 54.33 55.55 56.36 55.56 52.04 51.10 52.67 50.48 53.13 52.74 51.97 49.79 57.25 52.48 52.09 54.70 51.22 51.69 46.74 49.20 50.19 48.85 48.28 53.15 56.36 55.70 55.99 56.23 56.38 55.95 55.53 55.76 55.13 55.41 54.75 55.65 57.21 58.13 58.94 58.95 58.99
49.76 48.83 50.92 53.48 52.88 52.03 49.91 48.58 51.71 50.95 49.77 55.13 53.77 52.90 53.04 56.40 57.81 52.99 53.36 50.22 50.60 46.07 54.39 50.12 47.36 52.37 55.77 56.20 56.46 56.80 56.40 56.38 55.95 56.27 55.46 56.85 57.53 56.98 56.89 56.90 57.08 58.58 59.09 60.37
54.24 50.48 50.43 51.81 50.39 40.90 44.65 43.18 47.56 49.92 51.77 54.24 55.73 53.45 53.69 54.97 55.72 53.05 52.02 48.94 47.16 53.04 48.75 46.69 50.56 55.61 56.20 56.13 56.04 56.13 56.86 56.79 56.26 55.98 56.06 57.05 57.27 57.73 57.45 56.19 58.37 59.24 58.98 59.66
51.15 49.43 39.74 47.43 46.59 48.15 49.15 49.60 50.13 55.21 56.28 53.24 51.28 52.98 51.58 55.07 52.02 52.53 48.43 50.59 51.18 46.23 43.91 46.74 52.26 55.75 55.14 56.10 56.68 55.68 55.20 55.97 55.91 55.81 56.71 56.56 56.65 56.60 56.93 57.23 58.21 58.25 57.68 58.29
49.29 49.96 38.58 46.62 51.47 51.45 52.76 54.17 52.32 55.32 56.09 55.04 50.86 52.09 52.95 49.77 49.95 51.38 49.96 47.20 44.65 46.59 46.00 51.35 54.99 56.75 56.71 55.76 56.21 55.40 55.56 55.94 55.42 55.82 55.44 56.70 56.98 56.59 56.00 57.13 57.03 57.13 57.24 58.27
49.15 48.76 46.91 50.41 49.39 50.50 51.51 51.55 52.25 55.65 55.41 55.55 53.98 50.48 48.05 48.21 48.76 47.62 46.27 45.97 44.64 47.92 52.11 55.26 57.08 57.27 57.05 56.16 56.45 56.24 57.10 56.91 56.51 56.84 56.67 57.05 56.66 55.99 55.88 56.46 56.24 55.87 57.22 56.92
47.52 46.45 51.08 50.23 49.89 48.61 50.48 52.10 53.88 57.07 54.30 49.57 49.68 44.35 45.15 48.68 46.80 46.53 49.50 47.75 50.48 53.03 55.10 56.44 57.37 57.06 56.33 56.45 55.98 57.10 57.87 57.53 57.21 57.15 56.93 56.50 56.83 56.75 56.01 54.29 53.93 54.84 56.95 56.51

GFSNW_sfc_wetblb_342.txt.gz
Wetbulb
55.27 55.11 54.74 54.21 52.96 51.64 48.66 45.82 46.34 53.74 51.91 44.10 39.78 38.60 43.36 47.77 47.34 48.29 47.36 47.88 48.55 46.95 47.20 45.22 45.57 47.13 50.09 53.03 52.38 49.32 46.98 41.71 40.61 46.19 49.67 51.32 48.02 44.73 43.85 40.94 40.83 39.94 39.34 40.56
55.27 55.03 54.68 54.01 52.77 51.77 47.60 42.42 45.99 55.86 51.03 40.51 39.65 42.15 45.29 46.25 46.27 46.87 46.20 47.30 49.49 48.03 45.35 42.71 47.38 49.05 52.62 52.56 52.41 48.91 52.40 43.82 39.97 43.30 46.94 49.53 47.89 48.57 49.75 44.26 41.36 39.75 39.34 42.30
55.05 55.05 54.64 53.91 53.22 52.46 47.62 45.70 46.23 50.61 49.13 45.88 44.38 41.07 44.01 44.58 50.18 48.20 48.17 47.94 47.60 45.92 44.34 44.11 45.09 47.77 51.59 52.97 51.64 61.29 54.39 43.25 43.15 40.52 44.16 46.43 46.54 48.86 48.37 46.74 42.45 42.67 44.75 46.89
54.03 54.17 53.74 53.27 53.25 52.72 47.55 47.38 46.39 48.37 44.39 47.24 46.49 44.05 45.82 44.97 45.49 48.94 47.71 45.37 46.88 45.02 44.72 43.43 42.88 48.13 50.67 53.55 57.22 52.38 47.39 42.94 42.71 44.81 47.49 48.14 47.82 49.22 49.61 44.67 45.31 45.89 45.26 48.03
53.83 53.73 53.62 53.02 52.97 51.97 49.33 46.88 44.57 46.21 45.17 47.21 45.86 44.28 43.44 46.88 47.84 46.92 47.77 46.29 48.77 47.88 44.32 45.16 46.36 48.32 48.01 47.58 51.10 48.00 46.90 43.90 44.44 44.21 50.00 50.42 49.26 51.45 51.81 51.81 50.30 49.37 49.17 49.77
53.85 53.83 53.48 53.13 52.40 50.31 44.18 47.14 49.52 46.42 44.81 45.45 44.85 45.18 48.51 50.04 50.42 50.39 53.16 53.21 50.43 50.52 52.16 52.82 50.70 50.74 51.15 50.07 48.64 46.68 45.84 44.56 43.30 41.08 47.74 47.34 44.46 48.43 50.40 51.55 52.85 49.98 46.05 49.19
53.57 53.65 53.56 53.06 52.13 51.81 46.30 45.76 46.44 43.99 42.57 44.80 46.35 49.55 50.07 49.84 49.97 49.81 53.52 53.67 51.32 53.97 53.99 52.78 51.38 50.42 49.34 49.62 49.33 48.71 45.31 42.29 42.96 40.66 41.62 36.31 46.00 52.92 56.69 54.90 55.34 56.40 54.06 56.52
53.28 53.38 53.51 52.93 52.88 52.74 48.77 46.64 45.74 43.57 39.19 44.39 46.68 48.11 47.50 48.45 48.75 49.20 51.33 53.06 53.49 52.80 51.25 46.36 43.67 44.44 46.70 49.04 50.58 49.57 47.14 42.70 40.16 39.69 38.36 42.02 48.39 52.34 51.23 51.47 51.40 57.32 55.57 57.62
54.18 53.59 53.51 53.68 53.47 52.44 46.92 46.58 47.83 46.90 41.68 41.96 48.18 46.10 45.89 43.59 43.62 46.20 49.64 52.42 52.00 51.97 46.70 45.08 39.90 38.94 41.45 43.96 47.68 48.89 46.78 45.52 44.71 39.41 38.00 37.80 47.03 54.24 57.20 55.48 46.93 56.30 57.54 55.93
54.14 53.86 53.59 54.06 54.24 52.83 49.72 46.69 48.09 47.85 42.17 44.74 45.77 44.38 44.15 46.06 44.19 43.36 46.18 48.79 49.79 50.08 43.90 41.51 39.80 39.60 45.21 42.05 42.25 43.61 44.89 44.76 42.95 41.58 39.88 45.60 52.71 56.41 57.99 45.00 46.09 56.51 58.18 57.40
53.14 53.65 53.54 53.92 53.95 53.95 50.83 46.67 48.36 47.78 45.28 46.44 50.02 49.90 46.53 46.88 44.95 41.92 45.39 45.87 46.48 46.97 42.10 40.42 39.90 40.46 43.39 42.73 44.67 45.10 43.93 43.09 43.12 43.27 41.19 40.11 55.14 54.86 49.80 52.67 54.16 56.62 55.31 57.08
53.49 53.37 53.37 53.42 53.56 53.55 52.50 44.55 49.68 50.51 47.44 47.04 50.56 52.90 53.51 52.46 51.76 46.04 44.81 45.19 44.15 47.55 45.36 45.11 44.49 44.81 43.27 41.55 40.97 46.85 42.11 45.60 45.27 46.64 47.09 52.23 52.75 52.89 53.94 53.03 51.42 52.49 52.61 56.67
53.46 53.84 53.80 53.76 53.82 53.58 51.79 45.81 46.22 47.08 46.42 48.11 47.86 50.00 55.13 55.46 53.81 53.01 44.16 44.83 48.24 46.24 50.08 46.18 44.32 41.20 42.89 39.43 41.56 42.75 46.46 47.59 48.38 47.69 49.40 50.93 52.47 53.20 53.93 53.72 52.56 55.20 55.02 56.58
53.54 53.53 53.04 52.80 53.44 52.64 52.26 46.46 46.65 45.59 46.27 45.11 47.99 56.13 52.46 55.83 54.96 53.90 49.55 48.40 47.07 47.55 48.54 44.08 42.85 42.87 45.77 42.66 44.80 44.42 47.35 47.53 45.65 46.68 49.19 50.85 52.45 52.55 52.92 54.44 55.06 55.45 55.82 58.57
53.06 52.61 52.88 53.38 52.49 51.72 50.56 49.59 47.86 48.52 46.25 44.44 46.85 52.18 53.23 53.54 53.38 53.31 51.79 49.47 47.00 46.71 45.41 43.94 43.41 45.45 46.43 46.04 45.28 44.34 47.76 47.44 45.07 44.89 49.66 48.10 48.94 51.88 54.82 53.59 53.84 55.14 57.44 58.49
52.95 53.08 52.96 53.07 52.55 52.33 46.74 47.96 49.81 50.14 49.56 47.10 43.85 50.12 51.18 52.66 53.12 52.61 51.29 50.74 48.94 48.10 46.60 45.61 47.31 49.62 47.09 42.53 41.51 47.19 50.92 51.80 51.61 49.96 51.47 51.88 52.51 54.38 55.65 55.24 55.57 58.28 56.81 56.69
52.41 52.05 52.25 52.00 51.61 48.27 45.46 48.99 52.15 50.27 48.73 48.35 45.00 45.68 51.92 53.58 51.92 51.34 50.86 51.95 50.28 49.23 46.45 46.19 46.14 47.58 47.40 43.60 41.93 49.22 51.94 53.33 53.30 52.74 51.71 50.43 52.78 51.82 54.77 56.08 57.64 59.64 59.60 58.64
52.14 52.11 51.86 51.65 51.65 50.00 46.67 49.17 52.17 49.83 49.37 49.57 44.20 44.82 48.13 51.94 48.26 47.39 50.33 48.72 49.11 48.73 47.65 47.51 46.32 47.03 46.62 42.97 47.03 51.44 52.67 53.07 53.20 53.14 52.52 51.50 51.30 52.65 54.14 55.51 56.69 57.11 57.27 55.54
51.71 52.06 51.61 48.98 46.92 48.02 52.54 56.47 54.35 52.51 50.62 45.72 46.55 42.54 42.68 53.31 49.69 49.92 50.83 52.29 46.93 49.74 46.44 46.13 47.84 44.51 42.78 46.49 49.69 50.40 51.45 50.99 51.09 52.65 52.71 52.64 51.85 52.93 54.30 54.98 55.43 55.33 55.85 55.22
51.97 50.01 49.92 48.47 53.18 56.24 55.25 51.07 48.72 49.04 48.84 47.50 43.90 45.96 42.76 47.71 49.15 48.64 46.80 48.14 44.72 41.91 45.88 48.10 45.59 43.85 47.45 51.51 50.86 51.47 51.89 52.42 52.33 49.75 48.61 49.31 50.55 51.86 53.13 53.47 55.33 56.12 56.26 56.02
48.88 45.12 45.76 48.10 53.67 49.46 49.60 46.41 45.40 47.00 45.98 47.32 47.22 45.59 41.91 48.74 46.77 46.51 48.84 46.36 47.33 41.69 44.29 44.85 42.48 44.47 48.70 50.76 50.29 51.27 51.75 51.90 51.31 50.87 51.04 52.48 51.89 52.28 53.49 54.36 55.41 56.11 56.33 55.94
46.69 47.05 47.71 46.87 46.83 45.36 44.29 46.14 47.43 46.93 45.22 48.26 47.05 48.17 47.96 48.15 50.65 46.74 48.30 46.86 45.80 41.53 47.98 46.75 45.23 47.92 50.00 51.53 52.00 51.85 51.66 52.68 53.02 53.00 51.92 52.61 54.34 53.86 53.83 54.68 55.27 55.51 56.20 56.73
48.74 46.76 45.24 46.62 44.88 37.04 42.45 39.57 41.84 43.01 47.72 50.95 49.88 47.61 49.73 50.04 49.86 46.47 46.19 44.05 42.57 47.28 43.29 42.61 46.14 50.59 51.24 51.08 52.45 52.28 52.41 53.54 53.51 53.51 53.81 54.19 53.83 55.01 53.70 55.03 55.45 54.80 55.53 57.00
46.18 46.80 38.93 44.05 44.69 44.19 43.16 46.26 46.78 51.40 52.21 51.19 51.49 49.69 50.33 51.88 48.58 46.65 43.64 45.84 46.28 42.57 40.14 42.40 47.96 48.76 50.48 51.90 52.55 51.65 51.71 53.03 52.60 52.28 52.41 54.15 54.38 53.78 54.70 55.20 54.78 54.29 54.01 55.13
45.45 45.35 37.98 41.85 46.99 49.25 50.07 51.20 50.61 51.58 51.60 48.71 46.80 47.82 50.68 48.48 46.34 46.57 45.80 44.34 42.36 42.80 42.38 48.05 50.98 51.42 51.57 50.88 51.85 51.73 51.84 52.27 52.37 52.92 53.52 53.43 54.05 53.43 52.88 53.92 53.66 53.50 53.67 54.22
45.52 45.48 42.49 44.74 43.60 45.05 47.54 48.39 49.70 52.88 52.77 52.09 50.37 46.55 46.18 45.42 45.30 44.37 44.60 44.16 41.92 44.16 48.45 52.39 53.55 52.14 51.88 51.39 51.92 52.47 53.32 53.25 52.67 52.93 53.27 53.37 52.77 51.93 51.90 52.61 52.04 51.95 52.51 53.13
44.02 42.67 45.41 44.78 44.03 43.95 46.79 49.41 50.34 53.66 50.61 47.15 47.59 42.93 44.26 46.46 43.59 44.19 46.22 44.77 47.67 50.81 52.69 53.83 53.25 51.77 50.94 51.48 51.73 53.31 53.80 52.99 52.27 51.99 52.57 51.72 52.43 52.33 51.45 49.93 50.14 51.29 52.77 53.10

GFSNW_sfc_wetblb_345.txt.gz
Wetbulb
54.38 54.20 53.46 52.92 52.61 51.62 47.68 42.21 44.92 51.16 47.04 41.43 35.29 36.82 40.98 46.12 44.13 44.78 44.58 44.74 44.99 45.17 46.27 44.29 43.81 45.47 48.51 51.26 50.00 46.20 45.03 42.53 42.33 46.85 48.47 48.54 46.05 44.99 42.18 40.64 39.92 36.94 37.29 39.68
53.67 53.69 53.13 52.59 51.98 51.78 47.52 39.63 42.40 52.37 48.22 40.07 38.25 40.27 43.75 44.34 43.80 43.93 44.04 44.07 47.79 46.73 45.08 41.94 45.23 47.42 50.33 51.05 49.22 49.34 47.51 41.79 38.99 42.58 44.62 47.28 45.51 45.68 43.55 41.55 39.62 38.97 38.80 41.00
53.59 53.63 53.26 52.67 52.35 52.04 47.91 44.02 45.04 47.63 45.52 41.93 41.44 40.93 44.01 44.12 47.85 45.89 45.85 45.27 45.24 43.83 42.83 42.21 43.65 45.11 49.78 52.29 53.01 59.45 52.31 41.31 41.95 39.87 43.04 44.53 44.08 46.63 46.57 44.34 40.52 40.47 41.93 44.85
53.59 53.73 53.20 52.78 52.20 52.08 46.34 45.93 44.60 44.98 42.39 44.25 45.10 43.96 44.46 45.26 45.59 46.94 45.45 43.68 44.37 44.46 40.96 41.58 41.57 47.15 48.95 51.67 54.97 49.78 46.22 41.62 40.23 43.18 45.53 45.54 45.92 47.41 47.53 44.32 43.60 43.87 43.53 47.00
53.16 53.29 53.46 53.05 52.01 51.23 47.07 44.73 44.10 45.30 42.46 44.42 43.85 42.30 42.81 45.55 46.94 45.40 45.34 44.61 48.76 43.87 41.91 44.15 46.04 48.20 47.41 46.21 49.30 46.29 45.59 42.85 43.05 41.80 47.78 48.38 48.14 49.74 50.90 50.23 49.05 47.98 47.55 47.58
53.10 53.20 53.24 52.88 51.74 49.29 41.93 43.46 46.01 45.15 42.33 43.11 43.47 43.67 46.10 47.69 48.18 49.33 49.44 51.23 49.78 48.12 50.73 51.26 50.22 50.54 49.50 49.96 47.57 46.03 44.55 42.70 40.73 38.91 43.93 44.64 42.28 45.97 50.33 52.33 52.86 49.94 44.27 49.81
53.44 53.43 52.91 52.56 52.17 51.45 47.69 43.21 43.88 42.36 39.87 42.59 44.78 47.03 48.17 48.04 47.53 46.03 51.62 50.90 48.82 51.96 52.65 50.96 48.59 47.12 47.08 48.02 47.12 47.15 43.05 41.77 40.61 38.47 40.28 35.79 44.23 54.37 55.05 52.94 54.15 54.52 54.34 55.59
53.54 53.68 53.46 52.93 52.53 52.47 48.88 44.35 43.96 41.61 37.62 41.75 43.74 45.75 45.63 45.69 46.04 46.71 47.97 50.67 50.44 49.23 49.12 45.09 42.39 42.73 44.50 46.15 47.34 45.65 44.05 41.25 38.92 38.56 37.10 39.49 46.86 52.37 50.50 50.05 49.17 56.11 53.30 54.74
53.34 53.62 53.34 53.28 52.72 52.39 48.55 45.56 45.41 44.37 39.97 39.03 46.53 44.02 44.09 41.65 40.97 44.34 47.15 50.51 49.74 48.82 44.69 43.65 37.75 38.43 40.41 41.35 44.96 44.52 42.59 41.46 42.03 36.55 36.18 36.31 43.00 52.27 56.04 54.00 45.33 55.43 55.34 54.58
53.51 53.11 53.20 53.31 53.21 52.38 50.20 46.12 45.65 45.35 41.84 43.45 44.15 42.43 42.38 44.52 42.32 41.26 43.28 46.71 47.80 47.47 41.88 39.96 38.76 39.05 42.79 40.09 38.89 40.69 42.18 42.16 39.13 37.90 37.94 44.23 51.01 54.40 55.49 43.78 44.68 54.76 56.76 55.38
53.63 53.69 53.65 53.53 53.28 52.65 49.93 46.47 46.56 45.80 42.84 44.85 48.32 48.23 44.54 45.29 42.88 40.81 43.57 44.34 44.81 45.15 41.18 38.81 38.97 38.58 40.93 41.33 42.01 43.08 41.82 41.16 41.78 40.75 39.44 39.32 52.67 52.14 47.84 50.69 52.40 55.23 54.85 56.64
53.56 53.58 53.99 53.45 53.05 52.96 51.39 42.34 47.00 48.29 44.09 45.05 48.76 51.34 52.42 50.82 49.92 45.33 43.11 43.13 42.19 45.76 43.72 43.18 42.86 43.22 40.74 39.52 39.40 43.88 41.02 44.58 44.65 45.56 44.87 50.90 52.59 51.59 52.45 53.47 50.99 52.02 52.21 55.19
52.72 53.05 53.15 53.01 52.39 52.49 51.65 47.32 43.48 43.98 43.02 45.39 46.08 48.54 52.29 51.99 52.68 52.35 44.01 42.70 45.60 43.18 47.49 43.96 42.17 39.75 40.56 38.03 40.00 41.13 44.15 46.78 47.15 45.57 48.45 48.35 50.41 51.06 51.94 51.76 51.97 53.14 53.19 55.09
52.18 52.76 52.96 52.66 52.39 52.41 51.75 47.16 43.75 43.26 42.53 41.16 45.78 54.02 51.06 53.60 51.99 52.02 52.30 46.60 45.09 45.86 45.94 41.99 40.71 41.31 43.44 40.71 42.72 42.31 45.45 45.25 45.31 44.66 46.91 48.76 50.69 50.97 51.90 53.26 54.46 56.15 57.48 56.94
52.46 52.66 52.31 52.25 52.19 51.51 50.28 48.94 48.43 46.54 44.85 41.68 43.81 49.64 51.81 51.24 51.48 52.16 51.26 46.54 45.08 44.81 44.15 42.16 42.09 42.87 44.12 43.25 42.92 42.30 45.98 45.34 44.46 43.70 47.77 47.35 48.15 50.94 53.55 53.78 54.86 56.84 57.87 56.30
52.41 52.32 51.98 51.76 51.71 51.50 45.82 46.92 47.80 49.02 47.26 44.70 42.30 47.64 49.30 52.45 51.16 50.49 47.85 47.96 46.87 46.23 44.89 43.70 44.84 46.63 44.99 40.51 39.40 46.47 48.66 49.24 49.50 48.69 49.36 50.26 51.93 53.51 54.91 55.12 57.03 57.26 56.92 55.27
52.09 51.97 51.61 51.37 51.36 49.32 42.69 47.59 49.54 49.54 47.60 45.49 42.75 43.69 49.75 51.83 49.57 49.34 49.11 48.92 48.12 47.80 45.72 44.87 44.72 45.16 45.32 41.40 40.04 48.90 49.58 49.50 51.33 51.69 51.20 49.80 51.73 51.08 53.89 57.27 58.82 58.17 58.27 57.72
52.06 51.92 51.90 51.63 51.42 50.09 46.31 48.38 50.59 48.90 45.55 47.71 41.79 43.30 44.97 50.36 46.49 46.24 48.48 47.07 46.55 46.17 45.74 45.68 45.00 44.75 44.11 41.57 44.19 48.54 50.69 50.91 51.09 51.13 50.80 50.97 51.39 52.64 53.76 55.83 57.60 56.40 55.67 54.68
51.70 52.12 51.30 48.65 46.14 46.93 50.41 55.23 52.86 51.36 49.25 44.24 44.30 41.63 41.67 49.54 47.14 47.86 48.60 47.26 43.98 46.38 44.50 43.75 45.82 42.28 41.77 44.21 47.95 50.18 50.37 50.19 50.15 50.78 51.09 51.36 52.56 52.74 52.98 54.18 55.16 53.11 53.99 54.65
51.56 49.55 48.42 47.79 49.23 53.57 54.39 49.98 46.77 47.46 47.08 45.24 41.37 44.57 42.48 45.69 46.42 46.55 45.92 47.51 45.94 42.13 44.17 46.04 42.69 42.36 45.81 48.19 50.12 50.92 51.08 50.79 50.94 49.80 48.02 49.44 49.66 51.82 52.20 52.65 54.45 54.78 54.56 54.81
45.92 42.83 43.65 46.74 51.00 47.77 47.22 44.83 43.38 44.74 43.24 45.00 45.16 44.25 40.26 45.70 45.19 44.64 46.80 45.55 43.89 40.76 43.46 43.32 40.33 42.41 47.08 49.57 49.18 49.61 49.48 49.91 49.55 50.19 50.55 51.17 51.19 51.95 52.51 53.20 54.57 54.97 54.54 53.98
45.84 46.86 49.33 46.83 45.84 43.90 42.39 43.51 45.31 45.44 43.48 46.69 45.64 46.85 45.09 45.98 48.28 44.97 45.74 46.45 45.55 40.72 45.61 44.11 42.64 47.55 48.44 48.74 49.90 50.30 49.85 51.17 51.17 51.25 51.44 52.31 52.35 53.00 53.24 53.56 53.73 53.75 54.02 54.14
49.23 47.53 45.85 44.69 44.26 36.22 40.62 38.34 40.00 41.34 46.73 50.99 51.08 48.62 49.99 48.53 47.64 44.85 44.57 42.52 41.29 45.92 41.77 41.94 44.57 48.17 49.88 50.06 51.10 51.13 52.09 52.59 52.57 52.35 52.87 53.34 52.88 53.97 53.80 53.95 54.50 53.85 53.18 53.74
46.26 45.31 37.01 42.45 42.82 42.10 41.51 43.01 44.14 48.71 51.98 51.13 50.38 49.62 49.65 50.74 47.92 47.54 41.94 44.22 45.02 40.97 40.86 42.31 46.34 48.35 49.63 50.33 51.91 51.70 50.80 51.51 51.39 51.15 52.18 53.09 52.99 52.70 53.82 54.20 53.61 52.83 52.11 53.14
45.63 44.37 37.42 40.96 45.33 47.99 49.23 49.53 49.32 51.92 51.09 47.95 46.33 45.26 47.96 44.95 47.52 47.21 45.99 42.79 40.45 42.19 42.56 44.82 48.19 49.21 50.68 49.95 50.17 50.11 50.68 51.53 51.61 52.32 52.38 52.72 53.29 52.75 52.47 52.96 52.63 51.91 52.04 52.28
46.41 44.47 40.63 43.57 42.19 44.20 46.09 46.30 46.94 50.54 49.97 51.71 49.90 43.40 42.24 43.25 45.74 43.76 42.20 41.91 40.56 43.57 48.29 50.95 51.70 51.43 50.82 50.89 50.87 51.67 52.47 52.16 51.71 51.62 51.88 52.09 51.64 50.67 50.67 51.07 50.83 50.19 50.48 51.49
44.56 41.35 43.86 43.67 42.93 42.11 43.61 47.38 48.62 52.83 49.69 44.92 47.47 44.16 43.17 44.64 43.46 43.63 44.52 42.86 45.58 49.65 52.02 53.21 52.88 51.78 50.16 50.15 51.88 52.76 52.95 51.87 50.75 50.69 50.90 50.48 50.79 50.07 49.66 48.61 48.73 49.97 50.94 51.12